Mercury, NV

2:52 PM PDT on April 27, 2017 (GMT -0700)
Mercury

Weather History for KDRA - October, 2013

Change the Weather History Date:

Wednesday, October 23, 2013

  Actual Average Record
Temperature  
Mean Temperature 64 °F 60 °F  
Max Temperature 80 °F 74 °F 87 °F (2003)
Min Temperature 48 °F 47 °F 35 °F (1996)
Degree Days  
Heating Degree Days 1    
Cooling Degree Days 0    
Growing Degree Days 14 (Base 50)    
Moisture  
Dew Point 19 °F    
Average Humidity 17    
Maximum Humidity 33    
Minimum Humidity 4    
Precipitation  
Precipitation 0.00 in 0.01 in 0.12 in (2016)
Month to date precipitation 0.26  
Year to date precipitation 4.83  
Sea Level Pressure  
Sea Level Pressure 29.91 in    
Wind  
Wind Speed 6 mph (East)    
Max Wind Speed 12 mph    
Max Gust Speed 20 mph    
Visibility 10 miles    
Events      
T = Trace of Precipitation, MM = Missing Value Source: NWS Daily Summary

Daily Weather History Graph

Daily Weather History Graph

Search for Another Location

Airport or City:

Trip Planner

Search our weather history database for the weather conditions in past years. The results will help you decide how hot, cold, wet, or windy it might be!

Date:

Astronomy

Oct. 23, 2013 Rise Set
Actual Time 6:59 AM PDT 5:57 PM PDT
Civil Twilight 6:32 AM PDT 6:23 PM PDT
Nautical Twilight 6:02 AM PDT 6:53 PM PDT
Astronomical Twilight 5:32 AM PDT 7:23 PM PDT
Moon 9:35 PM PDT (10/23) 11:15 AM PDT (10/23)
Length of Visible Light 11h 50m
Length of Day
10h 57m
Waning Gibbous, 78% of the Moon is Illuminated
Oct 23
Waning Gibbous
Oct 26
Last Quarter
Nov 3
New
Nov 9
First Quarter
Nov 17
Full

Hourly Weather History & Observations

Time (PDT) Temp. Dew Point Humidity Pressure Visibility Wind Dir Wind Speed Gust Speed Precip Events Conditions
12:52 AM 57.9 °F 21.0 °F 24% 29.95 in 10.0 mi Calm Calm - N/A   Clear
1:52 AM 52.0 °F 21.0 °F 30% 29.95 in 10.0 mi North 6.9 mph - N/A   Clear
2:52 AM 54.0 °F 21.0 °F 28% 29.94 in 10.0 mi NNE 8.1 mph - N/A   Clear
3:52 AM 50.0 °F 21.9 °F 33% 29.94 in 10.0 mi North 4.6 mph - N/A   Clear
4:52 AM 51.1 °F 21.9 °F 32% 29.94 in 10.0 mi ENE 3.5 mph - N/A   Clear
5:52 AM 55.0 °F 19.9 °F 25% 29.94 in 10.0 mi NE 10.4 mph - N/A   Clear
7:52 AM 57.0 °F 19.9 °F 24% 29.97 in 10.0 mi NNW 3.5 mph - N/A   Clear
8:52 AM 64.0 °F 19.0 °F 18% 29.96 in 10.0 mi NNE 11.5 mph 19.6 mph N/A   Clear
9:52 AM 68.0 °F 19.9 °F 16% 29.96 in 10.0 mi SE 5.8 mph - N/A   Clear
10:52 AM 73.0 °F 19.9 °F 14% 29.95 in 10.0 mi Variable 4.6 mph - N/A   Clear
11:52 AM 75.0 °F 19.0 °F 12% 29.93 in 10.0 mi East 6.9 mph - N/A   Clear
12:52 PM 78.1 °F 18.0 °F 10% 29.90 in 10.0 mi ESE 9.2 mph - N/A   Clear
1:52 PM 78.1 °F 17.1 °F 10% 29.88 in 10.0 mi SE 11.5 mph 17.3 mph N/A   Clear
2:52 PM 79.0 °F 17.1 °F 10% 29.86 in 10.0 mi ESE 8.1 mph - N/A   Clear
3:52 PM 79.0 °F 17.1 °F 10% 29.86 in 10.0 mi ESE 8.1 mph - N/A   Clear
4:52 PM 78.1 °F 17.1 °F 10% 29.86 in 10.0 mi ESE 10.4 mph - N/A   Clear
5:52 PM 75.0 °F 17.1 °F 11% 29.86 in 10.0 mi ESE 6.9 mph - N/A   Clear
6:52 PM 66.0 °F 19.0 °F 17% 29.88 in 10.0 mi ESE 8.1 mph - N/A   Clear
7:52 PM 64.0 °F 19.0 °F 18% 29.88 in 10.0 mi East 6.9 mph - N/A   Clear
8:52 PM 63.0 °F 17.1 °F 17% 29.88 in 10.0 mi Calm Calm - N/A   Clear
9:52 PM 59.0 °F 18.0 °F 20% 29.89 in 10.0 mi East 9.2 mph - N/A   Clear
10:52 PM 57.0 °F 18.0 °F 22% 29.89 in 10.0 mi ESE 8.1 mph - N/A   Clear
11:52 PM 60.1 °F 17.1 °F 19% 29.89 in 10.0 mi Calm Calm - N/A   Clear